Location: Cahas Mountain Overlook
(37.0833°N, 80.1000°W)
Time: 22:52:23
(UTC-04:00)

Courier 1B - Pass Details

Date: 16 December 2023
Orbit: 962 x 1208 km, 28.3° (Epoch: 08 October)

Event Time Altitude Azimuth Distance (km) Brightness Sun altitude
Rises 10:53:35 0° 260° (W) 3,878 10.5 26.6°
Reaches altitude 10° 10:58:13 10° 234° (SW) 2,856 10.2 26.9°
Maximum altitude 11:01:03 13° 209° (SSW) 2,616 10.5 27.1°
Drops below altitude 10° 11:03:50 10° 185° (S) 2,783 11.2 27.2°
Sets 11:08:13 0° 158° (SSE) 3,683 11.8 27.5°
